FW7076 Weather Reports


time (UTC)temp
F
wind
direction
speed
knots
gust
knots
rain 1hr
in
rain 24hr
in
rain mn
in
humidity
%
barometer
mb
20260505230943 34 102 1.7 1.7 0.00 0.10 0.10 99 1295.4
20260505230441 34 113 0.9 0.9 0.00 0.10 0.10 99 1295.4
20260505225937 34 113 1.7 4.3 0.00 0.10 0.10 99 1295.7
20260505225434 34 133 2.6 2.6 0.00 0.10 0.10 99 1295.4
20260505224930 34 155 1.7 1.7 0.00 0.10 0.10 99 1295.2
20260505224427 34 120 1.7 2.6 0.00 0.10 0.10 99 1295.3
20260505223924 34 119 0.0 0.0 0.00 0.10 0.10 99 1295.4
20260505223421 34 108 0.9 2.6 0.05 0.10 0.10 99 1295.2
20260505222918 34 112 1.7 2.6 0.05 0.10 0.10 99 1295.2
20260505222414 34 99 2.6 4.3 0.00 0.09 0.09 99 1295.2
20260505221910 34 123 4.3 6.1 0.00 0.09 0.09 99 1295.3
20260505221408 34 145 2.6 2.6 0.00 0.09 0.09 99 1294.9
20260505220904 34 138 3.5 4.3 0.00 0.09 0.09 99 1295.2
20260505220401 34 139 4.3 7.0 0.00 0.09 0.09 99 1295.3
20260505215859 34 126 1.7 1.7 0.00 0.09 0.09 99 1295.4
20260505215357 34 105 4.3 6.1 0.00 0.09 0.09 99 1295.4
20260505214855 34 107 2.6 4.3 0.07 0.09 0.09 99 1295.6
20260505214352 34 116 3.5 5.2 0.07 0.09 0.09 99 1295.7
20260505213849 34 129 0.9 1.7 0.00 0.08 0.08 99 1295.4
20260505213347 34 125 2.6 4.3 0.00 0.08 0.08 99 1295.9
20260505212842 34 121 2.6 2.6 0.00 0.08 0.08 99 1295.8
20260505212340 34 130 2.6 4.3 0.00 0.08 0.08 99 1295.6
20260505211836 34 156 3.5 4.3 0.00 0.08 0.08 99 1296.0
20260505211334 35 150 4.3 6.1 0.00 0.08 0.08 99 1295.9
20260505210830 35 109 0.9 2.6 0.00 0.08 0.08 99 1296.0
20260505210327 35 146 2.6 2.6 0.00 0.08 0.08 99 1295.9
20260505205824 35 106 4.3 6.1 0.00 0.08 0.08 99 1295.8
20260505205322 35 129 0.9 0.9 0.00 0.08 0.08 99 1296.2
20260505204818 35 122 0.0 0.9 0.00 0.08 0.08 99 1296.2
20260505204317 35 88 3.5 4.3 0.00 0.08 0.08 99 1295.9
20260505203814 35 100 0.9 0.9 0.00 0.08 0.08 99 1296.2
20260505203310 35 143 4.3 7.0 0.00 0.08 0.08 99 1296.2
20260505202806 35 123 3.5 4.3 0.00 0.08 0.08 99 1296.2
20260505202306 35 123 1.7 2.6 0.00 0.08 0.08 99 1296.3
20260505201759 35 96 1.7 2.6 0.00 0.08 0.08 99 1296.3
20260505201257 35 121 2.6 4.3 0.00 0.08 0.08 99 1296.4
20260505200755 35 108 1.7 1.7 0.00 0.08 0.08 99 1296.5
20260505200252 35 118 2.6 2.6 0.00 0.08 0.08 99 1296.5
20260505195747 35 106 3.5 5.2 0.00 0.08 0.08 99 1296.5
20260505195245 35 134 6.1 7.0 0.00 0.08 0.08 99 1296.5
20260505194742 35 90 1.7 2.6 0.05 0.08 0.08 99 1296.8
20260505194238 35 133 2.6 2.6 0.00 0.07 0.07 99 1296.8
20260505193734 35 130 3.5 4.3 0.00 0.07 0.07 99 1297.4
20260505193232 35 103 4.3 5.2 0.00 0.07 0.07 99 1297.3
20260505192730 36 112 1.7 2.6 0.00 0.07 0.07 99 1296.9
20260505192228 35 120 2.6 4.3 0.00 0.07 0.07 99 1296.9
20260505191725 35 130 4.3 5.2 0.00 0.07 0.07 99 1297.0
20260505191223 36 117 1.7 4.3 0.00 0.07 0.07 99 1296.7
20260505190714 36 110 4.3 5.2 0.00 0.07 0.07 99 1296.8
20260505190213 36 147 5.2 7.0 0.00 0.07 0.07 99 1296.9
20260505185710 36 126 1.7 4.3 0.00 0.07 0.07 99 1297.1
20260505185207 36 114 2.6 2.6 0.00 0.07 0.07 99 1297.0
20260505184703 37 178 2.6 4.3 0.00 0.07 0.07 99 1297.0
20260505184200 37 91 0.9 0.9 0.00 0.07 0.07 99 1296.9
20260505183657 36 120 3.5 5.2 0.00 0.07 0.07 99 1296.8
20260505183155 36 111 2.6 4.3 0.07 0.07 0.07 99 1297.1
20260505182650 36 96 0.9 0.9 0.07 0.07 0.07 99 1297.4
20260505182148 36 115 2.6 2.6 0.00 0.06 0.06 99 1297.3
20260505181644 36 128 1.7 2.6 0.00 0.06 0.06 99 1297.5
20260505181142 36 134 4.3 7.0 0.05 0.06 0.06 99 1297.3
20260505180638 36 148 3.5 4.3 0.00 0.05 0.05 99 1297.5
20260505180135 36 94 2.6 4.3 0.00 0.05 0.05 99 1297.5
20260505175631 36 201 3.5 4.3 0.00 0.05 0.05 99 1297.8
20260505175127 37 158 2.6 2.6 0.07 0.05 0.05 99 1297.5
20260505174624 36 137 2.6 2.6 0.00 0.04 0.04 99 1297.6
20260505174120 36 346 0.0 0.9 0.05 0.04 0.04 99 1297.6
20260505173617 35 204 1.7 1.7 0.05 0.04 0.04 99 1297.4
20260505173114 35 298 2.6 2.6 0.00 0.03 0.03 99 1297.9
20260505172612 35 65 0.9 1.7 0.07 0.03 0.03 99 1297.8
20260505172108 36 97 1.7 2.6 0.07 0.03 0.03 99 1297.8
20260505171603 35 83 0.9 0.9 0.00 0.02 0.02 99 1297.8
20260505171100 35 218 0.9 0.9 0.00 0.02 0.02 98 1297.6
20260505170557 35 71 0.0 0.9 0.00 0.02 0.02 98 1297.9
20260505170053 35 21 1.7 2.6 0.05 0.02 0.02 98 1298.1
20260505165548 35 351 3.5 4.3 0.00 0.01 0.01 98 1297.9
20260505165045 35 10 3.5 4.3 0.00 0.01 0.01 98 1298.0
20260505164540 35 57 2.6 2.6 0.00 0.01 0.01 99 1298.0
20260505164038 35 66 2.6 2.6 0.00 0.01 0.01 99 1298.0
20260505163536 35 44 1.7 1.7 0.00 0.01 0.01 99 1297.8
20260505163033 35 29 2.6 2.6 0.00 0.01 0.01 99 1298.1
20260505162521 35 61 2.6 2.6 0.00 0.01 0.01 99 1298.2
20260505162018 35 7 3.5 4.3 0.00 0.01 0.01 99 1297.8
20260505161514 35 4 2.6 4.3 0.00 0.01 0.01 99 1297.9
20260505161011 35 16 1.7 2.6 0.00 0.01 0.01 99 1298.2
20260505160509 36 105 0.9 1.7 0.00 0.01 0.01 98 1297.9
20260505152946 36 50 1.7 1.7 0.00 0.00 0.00 98 1297.9
20260505152443 36 320 3.5 4.3 0.00 0.00 0.00 98 1298.2
20260505151938 36 75 0.9 0.9 0.00 0.00 0.00 98 1298.2
20260505151433 36 57 0.9 0.9 0.00 0.00 0.00 97 1298.0
20260505150931 36 62 1.7 1.7 0.00 0.00 0.00 97 1298.1
20260505150428 36 25 2.6 2.6 0.00 0.00 0.00 97 1298.1
20260505140358 39 121 0.0 0.9 0.00 0.00 0.00 94 1298.2
20260505124811 40 108 0.9 0.9 0.00 0.00 0.00 93 1297.3
20260505124308 41 132 1.7 1.7 0.00 0.00 0.00 92 1297.0
20260505123804 41 126 2.6 4.3 0.00 0.00 0.00 92 1296.8
20260505123301 41 102 1.7 1.7 0.00 0.00 0.00 92 1297.1
20260505122757 41 122 3.5 5.2 0.00 0.00 0.00 91 1297.3
20260505122255 41 114 2.6 4.3 0.00 0.00 0.00 90 1296.7
20260505121751 41 107 2.6 2.6 0.00 0.00 0.00 89 1296.5
20260505121248 41 119 2.6 2.6 0.00 0.00 0.00 89 1296.3
20260505120744 41 108 1.7 1.7 0.00 0.00 0.00 89 1296.7
20260505120240 41 106 0.9 0.9 0.00 0.00 0.00 88 1296.5
20260505115739 41 110 2.6 2.6 0.00 0.00 0.00 88 1296.4
20260505115237 41 116 0.9 0.9 0.00 0.00 0.00 87 1296.4
20260505114734 41 110 0.0 0.0 0.00 0.00 0.00 87 1296.8
20260505114230 41 130 0.9 0.9 0.00 0.00 0.00 88 1296.7
20260505113727 41 105 0.0 0.0 0.00 0.00 0.00 88 1296.4
20260505113223 42 98 2.6 2.6 0.00 0.00 0.00 88 1296.3
20260505112720 42 114 0.9 1.7 0.00 0.00 0.00 89 1296.2
20260505112218 42 98 0.0 0.9 0.00 0.00 0.00 88 1296.3
20260505111717 42 96 2.6 4.3 0.00 0.00 0.00 89 1296.4
20260505111214 42 104 1.7 2.6 0.00 0.00 0.00 89 1296.4
20260505110709 42 134 0.9 0.9 0.00 0.00 0.00 91 1296.7
20260505110207 42 103 1.7 1.7 0.00 0.00 0.00 92 1296.7
20260505102142 41 124 0.9 1.7 0.00 0.00 0.00 97 1296.4
20260505101641 41 105 1.7 1.7 0.00 0.00 0.00 97 1296.4
20260505101137 41 107 0.0 0.0 0.00 0.00 0.00 97 1296.3
20260505100633 41 103 0.9 0.9 0.00 0.00 0.00 97 1296.2
20260505100130 41 98 0.0 0.0 0.00 0.00 0.00 96 1296.2
20260505095626 41 95 0.0 0.0 0.00 0.00 0.00 96 1296.4
20260505095123 41 110 0.0 0.0 0.00 0.00 0.00 96 1296.3
20260505094620 41 92 0.9 1.7 0.00 0.00 0.00 96 1296.4
20260505094116 41 107 0.0 0.0 0.00 0.00 0.00 96 1296.0
20260505093612 41 101 0.0 0.0 0.00 0.00 0.00 95 1295.9
20260505093110 41 97 0.0 0.0 0.00 0.00 0.00 95 1295.8
20260505092607 42 96 0.0 0.0 0.00 0.00 0.00 95 1295.8
20260505092106 42 100 0.0 0.0 0.00 0.00 0.00 95 1295.9
20260505091602 42 121 0.0 0.9 0.00 0.00 0.00 95 1296.2
20260505091100 42 109 0.0 0.0 0.00 0.00 0.00 95 1296.4
20260505090558 42 107 0.0 0.0 0.00 0.00 0.00 95 1296.3
20260505090056 42 135 0.0 0.0 0.00 0.00 0.00 95 1296.2
20260505085553 42 112 0.0 0.0 0.00 0.00 0.00 96 1296.3
20260505085051 42 103 0.0 0.9 0.00 0.00 0.00 97 1296.5
20260505084549 43 81 0.0 0.0 0.00 0.00 0.00 97 1296.5
20260505084047 43 94 0.0 0.0 0.00 0.00 0.00 97 1296.9
20260505083543 43 91 0.0 0.0 0.00 0.00 0.00 97 1297.1
20260505083040 43 95 0.0 0.0 0.00 0.00 0.00 97 1296.8
20260505082536 43 76 0.0 0.0 0.00 0.00 0.00 97 1296.8
20260505082033 43 93 0.0 0.0 0.00 0.00 0.00 98 1297.4
20260505081529 43 102 0.0 0.0 0.00 0.00 0.00 98 1297.1
20260505081027 43 70 0.0 0.9 0.00 0.00 0.00 97 1296.8
20260505080523 43 50 1.7 1.7 0.00 0.00 0.00 97 1296.9
20260505080020 44 88 0.9 0.9 0.00 0.00 0.00 97 1297.3
20260505075515 43 90 0.9 0.9 0.00 0.00 0.00 97 1297.0
20260505075012 44 74 0.9 0.9 0.00 0.00 0.00 97 1297.0
20260505074510 44 80 0.0 0.0 0.00 0.00 0.00 97 1297.0
20260505074007 43 109 0.9 0.9 0.00 0.00 0.00 97 1297.3
20260505073504 43 70 0.9 0.9 0.00 0.00 0.00 97 1297.1
20260505073002 43 17 0.9 0.9 0.00 0.00 0.00 97 1297.1
20260505072458 43 25 0.9 0.9 0.00 0.00 0.00 97 1297.0
20260505071954 43 68 0.9 0.9 0.00 0.00 0.00 96 1297.4
20260505071449 43 63 1.7 1.7 0.00 0.00 0.00 96 1297.3
20260505070948 43 2 2.6 4.3 0.00 0.00 0.00 96 1297.4
20260505070444 44 288 2.6 4.3 0.00 0.00 0.00 96 1297.5
20260505065940 44 104 0.9 0.9 0.00 0.00 0.00 96 1297.3
20260505065437 44 93 0.9 0.9 0.00 0.00 0.00 95 1297.5
20260505064933 44 1 3.5 4.3 0.00 0.00 0.00 95 1297.3
20260505064431 44 57 0.9 0.9 0.00 0.00 0.00 95 1297.1
20260505063929 44 1 2.6 2.6 0.00 0.00 0.00 95 1297.4
20260505063425 44 27 0.9 1.7 0.00 0.00 0.00 95 1297.4
20260505062922 44 17 0.9 1.7 0.00 0.00 0.00 95 1297.4
20260505062419 44 74 0.9 0.9 0.00 0.00 0.00 94 1297.0
20260505061915 44 94 0.9 1.7 0.00 0.00 0.00 94 1297.1
20260505061414 44 26 3.5 4.3 0.00 0.00 0.00 93 1297.0
20260505060911 44 95 0.9 0.9 0.00 0.00 0.00 92 1297.4
20260505060408 44 340 2.6 2.6 0.00 0.00 0.00 92 1297.5
20260505055904 44 17 1.7 4.3 0.05 0.04 0.04 91 1297.8
20260505055400 44 56 0.9 1.7 0.05 0.04 0.04 90 1297.9
20260505054857 45 36 0.9 1.7 0.00 0.03 0.03 89 1297.4
20260505054354 45 36 1.7 1.7 0.00 0.03 0.03 88 1297.9
20260505053852 45 36 2.6 2.6 0.07 0.03 0.03 87 1297.6
20260505053349 45 346 3.5 4.3 0.07 0.03 0.03 86 1297.6
20260505052846 46 108 2.6 2.6 0.00 0.02 0.02 84 1297.4
20260505052343 46 21 1.7 2.6 0.00 0.02 0.02 81 1297.8
20260505051840 46 50 0.9 0.9 0.00 0.02 0.02 82 1297.6
20260505051337 46 103 0.0 0.0 0.00 0.02 0.02 82 1297.8
20260505050835 46 95 0.0 0.0 0.00 0.02 0.02 82 1297.6
20260505050334 46 96 0.0 0.0 0.00 0.02 0.02 81 1297.5
20260505041301 46 8 4.3 5.2 0.00 0.02 0.02 80 1296.7
20260505040758 46 314 4.3 6.1 0.00 0.02 0.02 82 1296.7
20260505040255 46 43 4.3 6.1 0.00 0.02 0.02 82 1296.8
20260505035752 46 14 3.5 4.3 0.00 0.02 0.02 82 1296.4
20260505035248 46 326 3.5 5.2 0.00 0.02 0.02 82 1296.4
20260505034745 46 347 4.3 5.2 0.00 0.02 0.02 81 1296.5
20260505034242 46 349 3.5 5.2 0.00 0.02 0.02 80 1296.7
20260505033738 46 244 6.1 7.0 0.00 0.02 0.02 82 1296.8
20260505033236 46 1 5.2 6.1 0.00 0.02 0.02 84 1296.5
20260505032734 46 15 3.5 5.2 0.00 0.02 0.02 84 1296.7
20260505032229 46 92 2.6 6.1 0.00 0.02 0.02 83 1296.8
20260505031727 47 315 2.6 4.3 0.00 0.02 0.02 80 1296.5
20260505031223 47 328 3.5 4.3 0.00 0.02 0.02 80 1296.3
20260505030721 47 297 5.2 7.0 0.00 0.02 0.02 80 1296.2
20260505030217 47 353 4.3 6.1 0.00 0.02 0.02 79 1296.3
20260505025712 47 289 6.1 7.0 0.00 0.02 0.02 80 1296.2
20260505025211 47 330 8.7 9.6 0.00 0.02 0.02 80 1296.3
20260505024709 47 296 5.2 6.1 0.00 0.02 0.02 81 1296.9
20260505024205 47 342 4.3 6.1 0.00 0.02 0.02 81 1296.5
20260505023703 47 2 5.2 7.0 0.00 0.02 0.02 81 1296.5
20260505023200 47 348 3.5 4.3 0.00 0.02 0.02 81 1296.5
20260505022658 47 61 3.5 4.3 0.00 0.02 0.02 81 1296.5
20260505022154 47 86 0.9 1.7 0.00 0.02 0.02 82 1296.3
20260505021651 47 62 2.6 2.6 0.00 0.02 0.02 81 1296.2
20260505021148 47 82 1.7 1.7 0.00 0.02 0.02 81 1296.3
20260505020643 47 38 1.7 1.7 0.00 0.02 0.02 82 1296.9
20260505020139 46 62 2.6 4.3 0.00 0.02 0.02 81 1296.8
20260505015637 46 12 3.5 5.2 0.00 0.02 0.02 82 1296.7
20260505015133 47 30 6.1 7.0 0.00 0.02 0.02 82 1296.7
20260505014630 49 341 7.0 8.7 0.07 0.02 0.02 76 1296.5
20260505014127 49 35 0.9 1.7 0.07 0.02 0.02 75 1296.3
20260505013625 50 14 3.5 4.3 0.05 0.01 0.01 69 1296.3
20260505013122 50 47 1.7 2.6 0.00 0.00 0.00 69 1296.5
20260505012620 51 40 0.9 0.9 0.00 0.00 0.00 71 1296.3
20260505012116 51 111 0.0 0.9 0.00 0.00 0.00 68 1296.5
20260505011612 52 334 2.6 4.3 0.00 0.00 0.00 63 1296.3
20260505011110 53 338 5.2 7.0 0.00 0.00 0.00 58 1296.2
20260505010605 54 313 5.2 7.8 0.00 0.00 0.00 56 1296.0
20260505005558 54 275 2.6 2.6 0.00 0.00 0.00 53 1295.7
20260505005055 55 260 3.5 5.2 0.00 0.00 0.00 52 1295.4
20260505004552 55 27 5.2 6.1 0.00 0.00 0.00 51 1295.2
20260505004049 55 335 3.5 4.3 0.00 0.00 0.00 50 1295.2
20260505003546 56 21 0.9 1.7 0.00 0.00 0.00 50 1294.8
20260505003043 56 356 7.8 11.3 0.00 0.00 0.00 48 1294.7
20260505002538 56 319 5.2 7.8 0.00 0.00 0.00 49 1294.6
20260505002037 57 21 3.5 5.2 0.00 0.00 0.00 48 1294.0
20260505001534 57 326 4.3 5.2 0.00 0.00 0.00 47 1294.3
20260505001031 57 2 2.6 4.3 0.00 0.00 0.00 47 1294.1
20260505000529 58 54 2.6 4.3 0.00 0.00 0.00 47 1294.2
20260505000026 59 323 6.1 7.8 0.00 0.00 0.00 45 1294.1
20260504235523 59 8 7.0 8.7 0.00 0.00 0.00 44 1294.5
20260504235019 60 35 3.5 5.2 0.00 0.00 0.00 45 1294.0
20260504234516 60 341 7.8 8.7 0.00 0.00 0.00 44 1294.1
20260504234013 60 19 4.3 5.2 0.00 0.00 0.00 45 1294.1
20260504233508 60 58 4.3 6.1 0.00 0.00 0.00 45 1294.2
20260504233006 61 42 7.0 8.7 0.00 0.00 0.00 44 1294.1
20260504232503 62 1 2.6 2.6 0.00 0.00 0.00 43 1294.2
20260504232000 61 41 2.6 2.6 0.00 0.00 0.00 42 1294.2
20260504231456 63 324 1.7 1.7 0.00 0.00 0.00 44 1294.1